Location: Newark
(44.3231°N, 6.0689°E)
Time: 04:38:47
(UTC+00:00)

Envisat - Visible Passes

Search period start: 10 December 2019 00:00
Search period end: 20 December 2019 00:00
Orbit: 764 x 766 km, 98.1° (Epoch: 09 December)

Date Brightness Start Highest point End Pass type
(mag) Time Alt. Az. Time Alt. Az. Time Alt. Az.
10 Dec 3.4 06:21:23 10° NNE 06:26:28 72° ESE 06:31:32 10° S visible
10 Dec 3.1 17:37:25 10° S 17:42:29 76° WSW 17:47:36 10° NNW visible
11 Dec 4.9 05:44:58 10° NNE 05:49:34 33° E 05:54:07 10° SSE visible
11 Dec 3.1 17:00:54 10° SE 17:05:47 51° ENE 17:10:43 10° N visible
11 Dec 5.5 18:41:19 10° SW 18:45:05 21° W 18:48:53 10° NW visible
12 Dec 6.0 05:09:27 10° NE 05:12:26 16° E 05:15:25 10° SE visible
12 Dec 4.0 16:25:12 10° ESE 16:29:17 25° ENE 16:33:23 10° N visible
12 Dec 4.1 18:03:13 10° S 18:08:03 44° W 18:12:55 10° NNW visible
13 Dec 3.8 06:10:09 10° NNE 06:15:10 57° E 06:20:09 10° S visible
13 Dec 2.9 17:26:08 10° SSE 17:31:13 86° ENE 17:36:20 10° NNW visible
13 Dec 6.1 19:09:05 10° WSW 19:10:54 12° W 19:12:44 10° WNW visible
14 Dec 5.3 05:33:55 10° NE 05:38:12 26° E 05:42:26 10° SSE visible
14 Dec 3.4 16:49:50 10° SE 16:54:34 41° ENE 16:59:19 10° N visible
14 Dec 5.1 18:29:30 10° SSW 18:33:43 26° W 18:37:57 10° NW visible
15 Dec 6.2 04:59:02 10° ENE 05:01:00 12° E 05:02:59 10° ESE visible
15 Dec 3.7 17:51:45 10° S 17:56:44 55° W 18:01:44 10° NNW visible
16 Dec 4.3 05:58:58 10° NNE 06:03:51 45° E 06:08:42 10° S visible
16 Dec 2.9 17:14:55 10° SSE 17:19:57 69° ENE 17:25:01 10° N visible
16 Dec 5.9 18:56:35 10° SW 18:59:28 15° W 19:02:23 10° NW visible
17 Dec 5.7 05:22:58 10° NE 05:26:49 21° E 05:30:38 10° SE visible
17 Dec 3.6 16:38:52 10° SE 16:43:21 33° ENE 16:47:53 10° N visible
17 Dec 4.7 18:17:49 10° SSW 18:22:21 32° W 18:26:54 10° NNW visible
18 Dec 3.2 06:24:18 10° NNE 06:29:24 78° ESE 06:34:29 10° S visible
18 Dec 3.3 17:40:22 10° S 17:45:25 70° WSW 17:50:31 10° NNW visible
19 Dec 4.7 05:47:49 10° NNE 05:52:31 36° E 05:57:10 10° SSE visible
19 Dec 3.1 17:03:45 10° SSE 17:08:42 55° ENE 17:13:40 10° N visible
19 Dec 5.6 18:44:30 10° SW 18:48:04 19° W 18:51:40 10° NW visible
